[[[{"header":{"parameterUnit":"kt","parameterCategory":2,"dx":1,"dy":1,"la1":30.253999710083008,"la2":30.299108505249023,"lo1":-89.0895004272461,"lo2":-89.04439544677734,"nx":28,"ny":28,"refTime":"2022-09-20T21:00:00:Z","depth":0,"parameterNumber":1,"parameterNumberName":"U-component_of_WINDS"},"data":[0.8621,0.8753,0.8803,0.8977,0.9052,0.9181,0.9243,0.933,0.9412,0.9573,0.9676,0.9743,0.9848,0.9985,1.01,1.0128,1.0173,1.018,1.0213,1.013,1.0122,1.0114,1.0085,1.019,1.019,1.0291,1.0292,1.0292,0.8547,0.8621,0.8729,0.8868,0.8961,0.8982,0.9096,0.9173,0.9289,0.9393,0.9497,0.9645,0.977,0.9877,1.0006,1.0071,1.0091,1.0103,1.0099,1.0115,1.0029,0.9997,1.0084,1.0084,1.0084,1.0084,1.0084,1.0084,0.8427,0.8505,0.8618,0.8737,0.8821,0.8915,0.8999,0.908,0.9188,0.9329,0.9372,0.9506,0.9623,0.9808,0.9885,0.9992,0.999,1.0021,1.0029,1.0035,1.0033,0.9875,1.0018,1.0018,1.0018,1.0018,1.0018,0,0.8354,0.8391,0.85,0.8622,0.8713,0.8814,0.8917,0.8971,0.9073,0.916,0.9289,0.9374,0.9542,0.9672,0.9808,0.9883,0.992,0.9931,0.9952,0.9931,0.9893,0.9913,0.9767,0.9927,0.9927,0.9926,0.9926,0.9926,0.8235,0.8322,0.8469,0.8538,0.8607,0.8719,0.8797,0.8881,0.896,0.9102,0.9169,0.93,0.941,0.9614,0.9713,0.9841,0.986,0.9914,0.9881,0.9855,0.986,0.9853,0.9862,0.992,0.9921,0.9921,0.9922,0,0.8163,0.8248,0.8401,0.854,0.8577,0.8665,0.8785,0.8869,0.8941,0.9068,0.9102,0.9217,0.9345,0.9437,0.9606,0.965,0.9796,0.9813,0.9754,0.9762,0.9819,0.9812,0.9992,1.0019,0.9913,0.9914,0.9914,0,0.8095,0.8208,0.8329,0.8414,0.8541,0.8623,0.8748,0.8822,0.8926,0.9026,0.9081,0.9175,0.9279,0.9387,0.9453,0.959,0.9623,0.9665,0.9681,0.966,0.9654,0.9706,0.9701,0.9717,0.9716,0.9715,0.9714,0,0.7972,0.8172,0.8309,0.8369,0.8532,0.8595,0.8666,0.8784,0.8862,0.8978,0.9029,0.916,0.9232,0.9332,0.9415,0.9388,0.9586,0.9567,0.9629,0.9627,0.967,0.9666,0.9801,0.9713,0.9713,0.9712,0.9712,0,0.7932,0.8045,0.8233,0.8368,0.8418,0.8511,0.8643,0.8743,0.8865,0.8912,0.9005,0.9054,0.9183,0.9156,0.9335,0.9275,0.9343,0.9396,0.9402,0.9421,0.9388,0.9451,0.957,0.9586,0.9434,0.9432,0.943,0,0.7766,0.7981,0.8053,0.8232,0.8343,0.8396,0.8501,0.8607,0.8679,0.8786,0.8867,0.899,0.899,0.9042,0.9118,0.9208,0.9285,0.92,0.9356,0.936,0.9319,0.943,0.9424,0.9533,0.9402,0.9404,0.9407,0,0.765,0.7847,0.7874,0.7946,0.8099,0.8195,0.8316,0.8456,0.8522,0.8638,0.8742,0.892,0.8926,0.9013,0.9069,0.9144,0.9235,0.9143,0.9147,0.9155,0.9396,0.9389,0.9407,0.9257,0.926,0.9263,0.9384,0,0.7565,0.7686,0.7763,0.7923,0.8011,0.813,0.8228,0.8309,0.8351,0.8426,0.8582,0.87,0.8847,0.8894,0.894,0.9082,0.9073,0.9081,0.9064,0.9136,0.9178,0.9196,0.8991,0.8991,0.8991,0.8991,0,0,0.7385,0.7561,0.764,0.776,0.784,0.7896,0.8014,0.81,0.8272,0.8327,0.8317,0.8584,0.8682,0.8864,0.8894,0.8955,0.8989,0.8962,0.9101,0.9112,0.9124,0.9167,0.9184,0.8992,0.8992,0.8992,0.8992,0,0.7375,0.7468,0.7583,0.7674,0.7811,0.7885,0.7912,0.8061,0.8115,0.827,0.8318,0.8426,0.8641,0.8736,0.8813,0.8941,0.8974,0.8979,0.9013,0.9098,0.9109,0.912,0.9165,0.9179,0.8992,0.8992,0.8992,0,0.7277,0.7384,0.7451,0.7636,0.7728,0.7845,0.7848,0.7973,0.806,0.8123,0.8277,0.8357,0.8496,0.8655,0.8731,0.8726,0.8954,0.8902,0.8905,0.8916,0.9004,0.9017,0.9029,0.8868,0.8867,0.8866,0,0,0.7255,0.7369,0.7513,0.7641,0.7695,0.7808,0.7881,0.7933,0.8054,0.8102,0.8207,0.8325,0.8451,0.8532,0.8656,0.8818,0.8854,0.8882,0.8888,0.8893,0.8906,0.8995,0.9008,0.8863,0.8862,0.8862,0,0,0.7246,0.7417,0.7439,0.76,0.7711,0.7865,0.7941,0.7973,0.8095,0.8093,0.8191,0.8227,0.8379,0.8458,0.84,0.8652,0.8633,0.8649,0.8596,0.8605,0.8611,0.8589,0.8425,0,0,0,0,0,0.7287,0.7395,0.7413,0.7455,0.7693,0.7854,0.7886,0.7966,0.7949,0.8006,0.8098,0.813,0.8446,0.8398,0.844,0.8504,0.882,0.8827,0.8835,0.8804,0.8813,0.8819,0,0,0,0,0,0,0.7304,0.7355,0.741,0.7567,0.7621,0.7851,0.7839,0.7864,0.7945,0.7948,0.811,0.8135,0.8209,0.8382,0.8419,0.8477,0.8413,0.8823,0.8829,0.8835,0.8807,0.8814,0.882,0,0,0,0,0,0.7318,0.7359,0.772,0.7566,0.7614,0.7746,0.7836,0.7857,0.7921,0.8066,0.809,0.7975,0.8209,0.8246,0.8404,0.8459,0.8389,0.8402,0.8827,0.8832,0.8837,0.881,0,0,0,0,0,0,0.7329,0.7381,0.7731,0.7749,0.7532,0.7735,0.777,0.785,0.8035,0.8061,0.7934,0.7934,0.821,0.8238,0.8266,0.8447,0.8368,0.8382,0.839,0.8831,0.8835,0.8838,0,0,0,0,0,0,0.7359,0.7395,0.774,0.7692,0.7705,0.7725,0.7755,0.7904,0.8037,0.7894,0.79,0.7932,0.8169,0.8234,0.8255,0.8485,0.8353,0.8366,0.8375,0.8381,0.8834,0.8837,0,0,0,0,0,0,0.7376,0.7407,0.7688,0.7698,0.7709,0.7912,0.7858,0.8099,0.7991,0.7885,0.7984,0.7981,0.8164,0.8188,0.8248,0.8467,0.848,0.8353,0.8362,0.8368,0.8372,0,0,0,0,0,0,0,0.739,0.7163,0.7626,0.7703,0.7712,0.791,0.7915,0.792,0.799,0.7987,0.7985,0.7982,0.8279,0.8293,0.8307,0.8453,0,0,0.8352,0.8358,0,0,0,0,0,0,0,0,0.7152,0.716,0.7627,0.7631,0.7634,0.7911,0.7915,0.7919,0.799,0.7987,0.7985,0.7983,0.8282,0.8294,0.8306,0,0,0,0,0,0,0,0,0,0,0,0,0,0,0,0.7627,0.763,0,0.7912,0.7915,0.7918,0.7989,0.7987,0.7986,0.7984,0.8286,0.8295,0.8305,0,0,0,0,0,0,0,0,0,0,0,0,0,0,0,0,0,0,0,0,0,0,0,0,0,0,0,0,0,0,0,0,0,0,0,0,0,0,0,0,0,0,0,0,0,0,0,0,0,0,0,0,0,0,0,0,0,0,0,0,0,0,0,0,0,0,0,0,0]}],[{"header":{"parameterUnit":"kt","parameterCategory":2,"dx":1,"dy":1,"la1":30.253999710083008,"la2":30.299108505249023,"lo1":-89.0895004272461,"lo2":-89.04439544677734,"nx":28,"ny":28,"refTime":"2022-09-20T21:00:00:Z","depth":0,"parameterNumber":2,"parameterNumberName":"V-component_of_WINDS"},"data":[4.8037,4.8031,4.8006,4.7985,4.7959,4.7938,4.7922,4.7897,4.787,4.7838,4.7814,4.7784,4.7742,4.7703,4.7672,4.7658,4.7645,4.766,4.764,4.7602,4.7595,4.7588,4.7589,4.7658,4.7658,4.7682,4.7682,4.7682,4.8001,4.7976,4.796,4.7927,4.791,4.788,4.7849,4.7836,4.7817,4.7785,4.7761,4.773,4.77,4.7653,4.7618,4.7608,4.7589,4.76,4.7598,4.7591,4.755,4.7552,4.7615,4.7615,4.7615,4.7615,4.7615,4.7615,4.7929,4.7928,4.7895,4.7877,4.7853,4.783,4.7822,4.7789,4.777,4.7737,4.7709,4.7686,4.7645,4.7591,4.7566,4.7543,4.7526,4.7528,4.7527,4.7528,4.753,4.7491,4.7536,4.7536,4.7536,4.7535,4.7535,0,4.7868,4.7847,4.7833,4.7809,4.7794,4.7773,4.7749,4.7743,4.7689,4.7675,4.7652,4.7634,4.7595,4.7567,4.7529,4.7502,4.7465,4.746,4.746,4.7472,4.7485,4.7473,4.7403,4.7459,4.7458,4.7458,4.7457,4.7457,4.7789,4.7794,4.7749,4.774,4.7723,4.7711,4.7698,4.7651,4.7638,4.7599,4.7598,4.7571,4.7548,4.7512,4.7469,4.7438,4.742,4.7443,4.7415,4.7424,4.7413,4.7413,4.7409,4.7449,4.745,4.7451,4.7451,0,4.7744,4.7707,4.7707,4.7663,4.7651,4.7656,4.7615,4.7611,4.758,4.7569,4.7563,4.7513,4.749,4.7444,4.7409,4.7384,4.7379,4.7364,4.739,4.7383,4.7396,4.7393,4.7455,4.7458,4.739,4.739,4.7391,0,4.766,4.7669,4.7611,4.7614,4.7618,4.7574,4.7579,4.7553,4.7523,4.7515,4.747,4.7461,4.7406,4.7388,4.7353,4.7342,4.7337,4.7316,4.7305,4.7318,4.732,4.7307,4.7302,4.729,4.729,4.7289,4.7289,0,4.7592,4.7575,4.7579,4.7569,4.7523,4.7525,4.7505,4.7473,4.7461,4.7438,4.7428,4.7404,4.739,4.7368,4.7324,4.7306,4.7311,4.7277,4.7289,4.729,4.7292,4.7292,4.7359,4.7289,4.7289,4.7289,4.7289,0,4.7517,4.7502,4.7516,4.7475,4.7473,4.7476,4.7451,4.7444,4.7413,4.7393,4.7374,4.7339,4.7331,4.7299,4.7284,4.7273,4.7259,4.724,4.724,4.7234,4.7199,4.7238,4.7312,4.7315,4.7229,4.7228,4.7228,0,4.7445,4.7453,4.7417,4.7431,4.7428,4.7378,4.738,4.7357,4.7331,4.732,4.7289,4.7278,4.7246,4.7236,4.7235,4.7202,4.7217,4.7199,4.7173,4.7173,4.7179,4.7247,4.7268,4.7301,4.7221,4.7222,4.7222,0,4.7386,4.7338,4.7344,4.7329,4.7297,4.7296,4.7299,4.7281,4.7276,4.7258,4.7255,4.7242,4.7214,4.7201,4.7171,4.7172,4.7205,4.7143,4.7142,4.7151,4.7217,4.7235,4.7241,4.7183,4.7184,4.7184,4.7217,0,4.7269,4.7272,4.7289,4.7265,4.7259,4.727,4.723,4.7227,4.7199,4.7173,4.7172,4.7145,4.7125,4.7123,4.7098,4.7119,4.7107,4.7081,4.7045,4.7092,4.7101,4.7105,4.7034,4.7033,4.7032,4.7031,0,0,4.7205,4.7211,4.7176,4.7182,4.7174,4.7126,4.7139,4.7126,4.7101,4.7094,4.7074,4.7053,4.7032,4.7034,4.7046,4.7041,4.7038,4.7026,4.7071,4.7076,4.708,4.7091,4.7096,4.7029,4.7029,4.7028,4.7028,0,4.7155,4.7145,4.7163,4.7148,4.7126,4.7101,4.7105,4.7074,4.7058,4.7063,4.702,4.7015,4.7004,4.6984,4.6973,4.7025,4.6991,4.7023,4.7062,4.7062,4.7069,4.7074,4.7086,4.7091,4.7026,4.7026,4.7026,0,4.7085,4.7065,4.7072,4.706,4.7046,4.7047,4.7,4.7007,4.7005,4.6952,4.6957,4.6936,4.691,4.6922,4.6926,4.6908,4.6951,4.6934,4.6939,4.6938,4.6936,4.6944,4.695,4.6862,4.6861,4.6861,0,0,4.7046,4.7053,4.7019,4.7047,4.7041,4.7005,4.7003,4.6978,4.6959,4.6952,4.6927,4.6907,4.6897,4.6893,4.6884,4.6905,4.6892,4.6915,4.6923,4.6929,4.6932,4.6932,4.6939,4.6859,4.6859,4.6859,0,0,4.7027,4.6991,4.6969,4.6999,4.6983,4.695,4.6967,4.6938,4.6928,4.6922,4.6877,4.687,4.6881,4.6864,4.6848,4.687,4.6836,4.6839,4.6881,4.6891,4.6898,4.6901,4.6796,0,0,0,0,0,4.6958,4.6995,4.6976,4.6976,4.6962,4.6961,4.6959,4.6925,4.69,4.6912,4.6886,4.6854,4.6845,4.683,4.6828,4.6846,4.684,4.6843,4.6846,4.6905,4.6915,4.6923,0,0,0,0,0,0,4.6957,4.6958,4.6974,4.6945,4.6941,4.696,4.691,4.6901,4.6898,4.6891,4.686,4.6853,4.6822,4.6828,4.6827,4.6845,4.6796,4.6841,4.6844,4.6847,4.6908,4.6917,4.6924,0,0,0,0,0,4.6957,4.6957,4.6946,4.6944,4.6941,4.6904,4.6908,4.6901,4.6897,4.6859,4.6851,4.6872,4.6824,4.682,4.6827,4.6846,4.6797,4.6797,4.6843,4.6845,4.6847,4.6912,0,0,0,0,0,0,4.6957,4.6948,4.6944,4.6942,4.6929,4.6902,4.6897,4.69,4.6864,4.6856,4.6868,4.6864,4.6825,4.6822,4.6819,4.6849,4.6797,4.6797,4.6797,4.6845,4.6847,4.6848,0,0,0,0,0,0,4.6948,4.6947,4.6943,4.6927,4.6922,4.69,4.6896,4.6899,4.6864,4.6875,4.687,4.6867,4.6827,4.6824,4.6821,4.6827,4.6798,4.6797,4.6797,4.6797,4.6846,4.6848,0,0,0,0,0,0,4.6947,4.6946,4.6927,4.6924,4.6919,4.6889,4.6902,4.6889,4.6853,4.6877,4.6849,4.6847,4.683,4.6827,4.6823,4.683,4.6828,4.6798,4.6797,4.6797,4.6797,0,0,0,0,0,0,0,4.6946,4.6963,4.6959,4.6921,4.6917,4.6919,4.6919,4.6918,4.6853,4.6851,4.6849,4.6848,4.6799,4.6799,4.6799,4.6832,0,0,4.6798,4.6798,0,0,0,0,0,0,0,0,4.6963,4.6963,4.6959,4.6958,4.6958,4.6919,4.6919,4.6918,4.6853,4.6851,4.685,4.6848,4.6799,4.6799,4.6799,0,0,0,0,0,0,0,0,0,0,0,0,0,0,0,4.6959,4.6959,0,4.6919,4.6919,4.6918,4.6852,4.6851,4.685,4.6849,4.6799,4.6799,4.6799,0,0,0,0,0,0,0,0,0,0,0,0,0,0,0,0,0,0,0,0,0,0,0,0,0,0,0,0,0,0,0,0,0,0,0,0,0,0,0,0,0,0,0,0,0,0,0,0,0,0,0,0,0,0,0,0,0,0,0,0,0,0,0,0,0,0,0,0,0]}]]]